Preview of NWS' New Version of Forecast
This preview is not operational and should not be used for support decisions.
Latest weather observations around

Cartersville, Cartersville Airport (KVPC)

Using English Units (Switch to International System of Units)
Date/ Time (EDT) Wind (mph) Vis. (mi) Weather Sky Cond. Temp (°F) Rel. Humidity Wind Chill (°F) Heat Index (°F) Pressure Precip. (in)
Air Dwpt 6 hour Altimeter (inHg) Sea level (inHg) 1 hr 3 hr 6 hr
Max Min
Sep 23 15:53 5 10 Partly Cloudy SCT070 93 58     31%   92 30.02 29.98      
Sep 23 14:53 N 9 10 Clear CLR 93 57     30%   92 30.04 30      
Sep 23 13:53 5 10 Clear CLR 89 56     33%   87 30.07 30.03      
Sep 23 12:53 5 10 Clear CLR 90 57     33%   89 30.11 30.07      
Sep 23 11:53 6 10 Clear CLR 86 56     36%   85 30.12 30.09      
Sep 23 10:53 Calm 10 Clear CLR 81 58     45%   81 30.14 30.1      
Sep 23 09:53 Calm 10 Clear CLR 75 62     64%   75 30.14 30.1      
Sep 23 08:53 Calm 10 Clear CLR 66 60     81%     30.14 30.11      
Sep 23 07:53 Calm 6 Fog/Mist CLR 57 54     89%     30.14 30.11      
Sep 23 06:53 Calm 10 Clear CLR 57 54     89%     30.13 30.09      
Sep 23 05:53 Calm 10 Clear CLR 58 55     90%     30.12 30.09      
Sep 23 04:53 Calm 10 Clear CLR 60 56     86%     30.12 30.08      
Sep 23 03:53 Calm 10 Clear CLR 58 55     90%     30.11 30.08      
Sep 23 02:53 Calm 10 Clear CLR 60 56     86%     30.12 30.09      
Sep 23 01:53 Calm 10 Clear CLR 62 57     84%     30.12 30.09      
Sep 23 00:53 Calm 10 Clear CLR 61 56     83%     30.13 30.09      
Sep 22 23:53 Calm 10 Clear CLR 65 58     78%     30.14 30.1      
Sep 22 22:53 Calm 10 Clear CLR 66 58     75%     30.14 30.11      
Sep 22 21:53 Calm 10 Clear CLR 69 59     70%     30.14 30.1      
Sep 22 20:53 Calm 10 Clear   69 59     70%     30.13 30.1      
Sep 22 19:53 S 3 10 Clear CLR 75 58     55%   75 30.12 30.09      
Sep 22 18:53 SE 3 10 Clear CLR 85 56     37%   84 30.11 30.07      
Sep 22 17:53 SE 7 10 Clear CLR 88 54     31%   86 30.11 30.08      
Sep 22 16:53 S 6 10 Clear CLR 89 55     32%   87 30.12 30.08      
Sep 22 15:53 S 10 10 Clear CLR 88 55     33%   86 30.13 30.09      
Sep 22 14:53 SSE 8 10 Clear CLR 88 55     33%   86 30.16 30.12      
Sep 22 13:53 7 10 Clear CLR 88 56     34%   86 30.18 30.14      
Sep 22 12:53 5 10 Mostly Clear FEW055 86 56     36%   85 30.21 30.17      
Sep 22 11:53 3 10 Clear CLR 82 62     51%   83 30.24 30.21      
Sep 22 10:53 N 3 10 Clear CLR 78 62     58%   78 30.26 30.23      
Sep 22 09:53 Calm 10 Clear CLR 73 61     66%   73 30.27 30.24      
Sep 22 08:53 Calm 10 Clear CLR 67 60     79%     30.26 30.23      
Sep 22 07:53 3 10 Clear CLR 57 55     93%     30.24 30.22      
Sep 22 06:53 Calm 10 Clear CLR 59 57     93%     30.23 30.19      
Sep 22 05:53 Calm 10 Clear CLR 60 57     90%     30.22 30.18      
Sep 22 04:53 Calm 10 Clear CLR 61 57     87%     30.21 30.17      
Sep 22 03:53 Calm 10 Clear CLR 60 56     86%     30.21 30.17      
Sep 22 02:53 Calm 10 Clear CLR 60 56     86%     30.22 30.18      
Sep 22 01:53 Calm 10 Clear CLR 60 57     90%     30.22 30.18      
Sep 22 00:53 Calm 10 Clear CLR 63 57     81%     30.22 30.19      
Sep 21 23:53 Calm 10 Clear CLR 66 58     75%     30.24 30.2      
Sep 21 22:53 Calm 10 Clear CLR 66 58     75%     30.24 30.2      
Sep 21 21:53 Calm 10 Clear CLR 69 58     68%     30.23 30.19      
Sep 21 20:53 Calm 10 Clear CLR 69 58     68%     30.21 30.18      
Sep 21 19:53 Calm 10 Clear CLR 76 58     54%   76 30.2 30.17      
Sep 21 18:53 S 3 10 Clear CLR 85 54     35%   83 30.19 30.16      
Sep 21 17:53 SSE 5 10 Clear CLR 87 55     34%   85 30.2 30.16      
Sep 21 16:53 5 10 Clear CLR 87 54     32%   85 30.21 30.17      
Sep 21 15:53 5 10 Mostly Clear FEW065 89 56     33%   87 30.23 30.19      
Sep 21 14:53 7 10 Partly Cloudy SCT065 87 54     32%   85 30.25 30.21      
Sep 21 13:53 6 10 Mostly Cloudy BKN055 86 58     39%   85 30.28 30.24      
Sep 21 12:53 3 10 Mostly Cloudy BKN048 84 59     43%   84 30.31 30.27      
Sep 21 11:53 6 10 Clear CLR 82 63     53%   83 30.31 30.28      
Sep 21 10:53   10 Clear CLR 78 63     60%   78 30.34 30.31      
Sep 21 09:53 3 10 Clear CLR 73 61     66%   73 30.35 30.32      
Sep 21 08:53 Calm 10 Clear CLR 67 59     76%     30.34 30.31      
Sep 21 07:53 Calm 10 Clear CLR 60 57     90%     30.33 30.31      
Sep 21 06:53 SE 5 10 Clear CLR 59 55     87%     30.32 30.29      
Sep 21 05:53 ESE 3 10 Clear CLR 57 55     93%     30.29 30.26      
Sep 21 04:53 Calm 10 Clear CLR 60 56     86%     30.28 30.25      
Sep 21 03:53 Calm 10 Clear CLR 63 57     81%     30.28 30.24      
Sep 21 02:53 Calm 10 Clear CLR 64 57     78%     30.29 30.25      
Sep 21 01:53 E 3 10 Clear CLR 65 57     76%     30.28 30.24      
Sep 21 00:53 ESE 3 10 Clear CLR 64 55     73%     30.28 30.25      
Sep 20 23:53 Calm 10 Clear CLR 66 55     68%     30.28 30.24      
Sep 20 22:53 Calm 10 Clear CLR 63 56     78%     30.27 30.24      
Sep 20 21:53 Calm 10 Clear CLR 65 57     76%     30.26 30.23      
Sep 20 20:53 Calm 10 Clear CLR 69 57     65%     30.24 30.21      
Sep 20 19:53 Calm 10 Clear   73 57     57%   73 30.23 30.2      
Sep 20 18:53 3 10 Clear CLR 81 55     41%   81 30.22 30.19      
Sep 20 17:53 6 10 Clear   84 55     37%   83 30.22 30.18      
Sep 20 16:53 5 10 Clear CLR 84 55     37%   83 30.23 30.19      
Sep 20 15:53 ESE 10 10 Clear CLR 84 54     36%   83 30.23 30.2      
Sep 20 14:53 E 7 10 Clear CLR 83 54     37%   82 30.26 30.22      
Sep 20 13:53 ESE 9 10 Clear CLR 82 53     37%   81 30.28 30.24      
May 14 18:53 Calm 10 Clear CLR 85 68     57%   88 29.96 29.93      
May 14 05:53 Calm 7 Clear CLR 60 60     100%       30      
May 14 04:53 Calm 8 Clear CLR 60 60     100%     30.03 29.99      
May 14 03:53 Calm 8 Clear CLR 62 62     100%     30.04 30      
May 14 02:53 Calm 8 Clear CLR 62 62     100%     30.05 30.01      
Notice The following observation data may not be complete
May 12 19:53   10 Clear CLR          %              
May 12 03:53 Calm 6 Fog/Mist CLR 60 60     100%     30.12 30.08      
May 11 09:53 Calm 10 Clear CLR 70 65     84%       30.13      
Jun 11 23:53 SSE 5 10 Clear CLR 76 70     82%   77 30.17 30.13      
Jun 11 15:53 SSE 6 10 Mostly Clear FEW040 85 70     61%   89 30.16 30.12      
Jun 10 21:53 SSE 3 10 Partly Cloudy SCT080 71 67     87%   72 30.11 30.07      
Jun 09 18:53 Calm 10 Mostly Clear FEW065 81 58     45%   81 29.94 29.91      
Jun 09 12:53 3 10 Mostly Cloudy SCT047 BKN060 80 59     49%   81 30 29.96      
Jun 09 05:53 Calm 10 Mostly Clear FEW060 58 58     100%     29.94 29.91      
Jun 08 23:53 Calm 10 Cloudy BKN055 OVC070 68 66     93%     29.92 29.88      
Notice The following observation data may not be complete
Jun 07 21:53 Calm 10 Clear CLR   58      %     29.86 29.83      
Jun 07 15:53 7 10 Clear CLR 79 61     54%   79 29.83 29.79      
Jun 07 12:53 6 10 Clear   79 59     50%   79 29.85 29.81      
Jun 07 11:53 6 10 Clear CLR 75 60     60%   75 29.86 29.82      
Jun 06 10:53 N 7 10 Mostly Cloudy BKN018 BKN085 77 71     82%   78 29.83 29.79      
Jun 06 04:27 Calm 10 Mostly Cloudy BKN010 BKN018 70 70     100%     29.81        
Jun 06 04:01 Calm 10 Cloudy BKN020 BKN044 OVC070 70 70     100%     29.82        
Jun 06 01:53 Calm 9 Mostly Cloudy SCT029 BKN042 BKN075 70 70     100%     29.84 29.8 0   0